Location: Dieppe
(49.9230°N, 1.0775°E)
Time: 09:16:05
(UTC+01:00)

ISS - Visible Passes

Search period start: 24 March 2017 00:00
Search period end: 03 April 2017 01:00
Orbit: 399 x 409 km, 51.6° (Epoch: 24 March)

Date Brightness Start Highest point End Pass type
(mag) Time Alt. Az. Time Alt. Az. Time Alt. Az.
27 Mar -1.8 21:50:04 10° S 21:51:06 15° S 21:51:06 15° S visible
28 Mar -1.7 20:59:01 10° SSE 21:00:18 12° SE 21:01:37 10° ESE visible
28 Mar -2.1 22:33:00 10° SW 22:34:29 24° SW 22:34:29 24° SW visible
29 Mar -3.1 21:40:52 10° SW 21:43:52 34° SSE 21:44:54 27° ESE visible
29 Mar -1.0 23:16:55 10° W 23:17:35 15° W 23:17:35 15° W visible
30 Mar -4.0 22:24:29 10° WSW 22:27:45 85° SSE 22:27:45 85° SSE visible
31 Mar -3.8 21:32:07 10° WSW 21:35:20 61° SSE 21:37:46 16° ENE visible
31 Mar -2.0 23:08:35 10° W 23:10:26 30° WNW 23:10:26 30° WNW visible
01 Apr -3.7 22:16:04 10° W 22:19:21 71° N 22:20:17 42° ENE visible
01 Apr -0.6 23:52:42 10° WNW 23:52:56 12° WNW 23:52:56 12° WNW visible
02 Apr -3.8 21:23:34 10° WSW 21:26:50 88° NNW 21:30:02 11° ENE visible
02 Apr -2.7 23:00:12 10° WNW 23:02:40 45° NW 23:02:40 45° NW visible
